| time (UTC) | temp C | wind direction | speed KPH | gust KPH | rain 1hr cm | rain 24hr cm | rain mn cm | humidity % | barometer mb |
| 20260504215003 | 25 | 193 | 0.0 | 0.0 | 0.00 | 0.00 | 0.00 | 26 | 993.4 |
| 20260504214537 | 26 | 172 | 0.0 | 0.0 | 0.00 | 0.00 | 0.00 | 29 | 993.4 |
| 20260504214458 | 26 | 76 | 0.0 | 0.0 | 0.00 | 0.00 | 0.00 | 29 | 993.4 |
| 20260504214027 | 25 | 289 | 0.0 | 0.0 | 0.00 | 0.00 | 0.00 | 29 | 993.4 |
| 20260504213955 | 25 | 98 | 0.0 | 0.0 | 0.00 | 0.00 | 0.00 | 29 | 993.4 |
| 20260504213754 | 25 | 195 | 0.0 | 0.0 | 0.00 | 0.00 | 0.00 | 27 | 993.5 |
| 20260504213451 | 25 | 195 | 0.0 | 0.0 | 0.00 | 0.00 | 0.00 | 28 | 993.7 |
| 20260504213014 | 25 | 248 | 0.0 | 0.0 | 0.00 | 0.00 | 0.00 | 29 | 993.4 |
| 20260504212949 | 25 | 248 | 0.0 | 0.0 | 0.00 | 0.00 | 0.00 | 28 | 993.4 |
| 20260504212513 | 25 | 29 | 0.0 | 0.0 | 0.00 | 0.00 | 0.00 | 28 | 993.5 |
| 20260504212444 | 25 | 296 | 0.0 | 0.0 | 0.00 | 0.00 | 0.00 | 30 | 993.7 |
| 20260504212014 | 25 | 109 | 0.0 | 0.0 | 0.00 | 0.00 | 0.00 | 28 | 993.5 |
| 20260504211942 | 25 | 133 | 0.0 | 0.0 | 0.00 | 0.00 | 0.00 | 28 | 993.7 |
| 20260504211513 | 25 | 198 | 0.0 | 0.0 | 0.00 | 0.00 | 0.00 | 28 | 993.5 |
| 20260504211438 | 25 | 198 | 0.0 | 0.0 | 0.00 | 0.00 | 0.00 | 27 | 993.7 |
| 20260504211012 | 25 | 290 | 0.0 | 0.0 | 0.00 | 0.00 | 0.00 | 27 | 993.7 |
| 20260504210936 | 25 | 283 | 0.0 | 0.0 | 0.00 | 0.00 | 0.00 | 28 | 993.7 |
| 20260504210511 | 25 | 16 | 0.0 | 0.0 | 0.00 | 0.00 | 0.00 | 27 | 993.6 |
| 20260504210433 | 25 | 101 | 0.0 | 0.0 | 0.00 | 0.00 | 0.00 | 27 | 993.7 |
| 20260504210011 | 25 | 119 | 0.0 | 0.0 | 0.00 | 0.00 | 0.00 | 30 | 993.6 |
| 20260504205930 | 25 | 132 | 0.0 | 0.0 | 0.00 | 0.00 | 0.00 | 29 | 993.7 |
| 20260504205510 | 25 | 30 | 0.0 | 0.0 | 0.00 | 0.00 | 0.00 | 29 | 993.8 |
| 20260504205427 | 25 | 31 | 0.0 | 0.0 | 0.00 | 0.00 | 0.00 | 29 | 994.1 |
| 20260504205011 | 25 | 159 | 0.0 | 0.0 | 0.00 | 0.00 | 0.00 | 27 | 993.8 |
| 20260504204925 | 25 | 252 | 0.0 | 0.0 | 0.00 | 0.00 | 0.00 | 27 | 994.1 |
| 20260504204751 | 25 | 234 | 0.0 | 0.0 | 0.00 | 0.00 | 0.00 | 28 | 993.8 |
| 20260504204423 | 25 | 191 | 0.0 | 0.0 | 0.00 | 0.00 | 0.00 | 29 | 994.1 |
| 20260504204017 | 25 | 15 | 0.0 | 0.0 | 0.00 | 0.00 | 0.00 | 29 | 993.9 |
| 20260504203922 | 25 | 175 | 0.0 | 0.0 | 0.00 | 0.00 | 0.00 | 27 | 994.1 |
| 20260504203510 | 25 | 288 | 0.0 | 0.0 | 0.00 | 0.00 | 0.00 | 30 | 993.9 |
| 20260504203419 | 25 | 279 | 0.0 | 0.0 | 0.00 | 0.00 | 0.00 | 30 | 994.1 |
| 20260504203010 | 24 | 355 | 0.0 | 0.0 | 0.00 | 0.00 | 0.00 | 30 | 994.0 |
| 20260504202915 | 24 | 355 | 0.0 | 0.0 | 0.00 | 0.00 | 0.00 | 31 | 994.1 |
| 20260504202509 | 23 | 284 | 0.0 | 0.0 | 0.00 | 0.00 | 0.00 | 30 | 994.0 |
| 20260504202412 | 23 | 193 | 0.0 | 0.0 | 0.00 | 0.00 | 0.00 | 32 | 994.1 |
| 20260504202306 | 23 | 148 | 0.0 | 0.0 | 0.00 | 0.00 | 0.00 | 30 | 994.2 |
| 20260504202020 | 23 | 182 | 0.0 | 0.0 | 0.00 | 0.00 | 0.00 | 32 | 994.1 |
| 20260504201909 | 23 | 327 | 0.0 | 0.0 | 0.00 | 0.00 | 0.00 | 30 | 994.1 |
| 20260504201406 | 23 | 127 | 0.0 | 0.0 | 0.00 | 0.00 | 0.00 | 31 | 994.4 |
| 20260504201007 | 23 | 0 | 0.0 | 0.0 | 0.00 | 0.00 | 0.00 | 32 | 994.3 |
| 20260504200903 | 23 | 351 | 0.0 | 0.0 | 0.00 | 0.00 | 0.00 | 32 | 994.4 |
| 20260504200737 | 23 | 163 | 0.0 | 0.0 | 0.00 | 0.00 | 0.00 | 34 | 994.4 |
| 20260504200400 | 23 | 163 | 0.0 | 0.0 | 0.00 | 0.00 | 0.00 | 32 | 994.4 |
| 20260504195959 | 23 | 133 | 0.0 | 0.0 | 0.00 | 0.00 | 0.00 | 31 | 994.5 |
| 20260504195856 | 23 | 205 | 0.0 | 0.0 | 0.00 | 0.00 | 0.00 | 31 | 994.4 |
| 20260504195459 | 23 | 272 | 0.0 | 0.0 | 0.00 | 0.00 | 0.00 | 30 | 994.5 |
| 20260504195352 | 23 | 275 | 0.0 | 0.0 | 0.00 | 0.00 | 0.00 | 32 | 994.7 |
| 20260504194958 | 23 | 140 | 0.0 | 0.0 | 0.00 | 0.00 | 0.00 | 32 | 994.6 |
| 20260504194849 | 23 | 163 | 0.0 | 0.0 | 0.00 | 0.00 | 0.00 | 32 | 994.7 |
| 20260504194459 | 23 | 312 | 0.0 | 0.0 | 0.00 | 0.00 | 0.00 | 30 | 994.7 |
| 20260504194345 | 23 | 190 | 0.0 | 0.0 | 0.00 | 0.00 | 0.00 | 30 | 994.7 |
| 20260504193957 | 23 | 355 | 0.0 | 0.0 | 0.00 | 0.00 | 0.00 | 32 | 994.7 |
| 20260504193841 | 23 | 342 | 0.0 | 0.0 | 0.00 | 0.00 | 0.00 | 34 | 994.7 |
| 20260504193456 | 23 | 172 | 0.0 | 0.0 | 0.00 | 0.00 | 0.00 | 31 | 994.9 |
| 20260504193338 | 23 | 286 | 0.0 | 0.0 | 0.00 | 0.00 | 0.00 | 31 | 995.1 |
| 20260504192958 | 23 | 158 | 0.0 | 0.0 | 0.00 | 0.00 | 0.00 | 32 | 994.9 |
| 20260504192837 | 23 | 5 | 0.0 | 0.0 | 0.00 | 0.00 | 0.00 | 30 | 995.1 |
| 20260504192458 | 23 | 284 | 0.0 | 0.0 | 0.00 | 0.00 | 0.00 | 32 | 994.9 |
| 20260504192335 | 23 | 90 | 0.0 | 0.0 | 0.00 | 0.00 | 0.00 | 32 | 995.1 |
| 20260504191958 | 23 | 203 | 0.0 | 0.0 | 0.00 | 0.00 | 0.00 | 34 | 995.0 |
| 20260504191833 | 23 | 106 | 0.0 | 0.0 | 0.00 | 0.00 | 0.00 | 32 | 995.1 |
| 20260504191457 | 23 | 331 | 0.0 | 0.0 | 0.00 | 0.00 | 0.00 | 34 | 995.0 |
| 20260504191330 | 23 | 285 | 0.0 | 0.0 | 0.00 | 0.00 | 0.00 | 34 | 995.1 |
| 20260504190956 | 23 | 142 | 0.0 | 0.0 | 0.00 | 0.00 | 0.00 | 34 | 995.1 |
| 20260504190826 | 23 | 313 | 0.0 | 0.0 | 0.00 | 0.00 | 0.00 | 33 | 995.1 |
| 20260504190453 | 23 | 88 | 0.0 | 0.0 | 0.00 | 0.00 | 0.00 | 33 | 995.1 |
| 20260504190322 | 23 | 22 | 0.0 | 0.0 | 0.00 | 0.00 | 0.00 | 32 | 995.1 |
| 20260504185952 | 23 | 60 | 0.0 | 0.0 | 0.00 | 0.00 | 0.00 | 32 | 995.2 |
| 20260504185819 | 23 | 190 | 0.0 | 0.0 | 0.00 | 0.00 | 0.00 | 37 | 995.4 |
| 20260504185453 | 23 | 107 | 0.0 | 0.0 | 0.00 | 0.00 | 0.00 | 38 | 995.3 |
| 20260504185316 | 23 | 327 | 0.0 | 0.0 | 0.00 | 0.00 | 0.00 | 34 | 995.4 |
| 20260504184954 | 23 | 73 | 0.0 | 0.0 | 0.00 | 0.00 | 0.00 | 33 | 995.3 |
| 20260504184812 | 23 | 182 | 0.0 | 0.0 | 0.00 | 0.00 | 0.00 | 33 | 995.4 |
| 20260504184453 | 23 | 122 | 0.0 | 0.0 | 0.00 | 0.00 | 0.00 | 32 | 995.3 |
| 20260504184308 | 23 | 305 | 0.0 | 0.0 | 0.00 | 0.00 | 0.00 | 32 | 995.4 |
| 20260504183952 | 23 | 137 | 0.0 | 0.0 | 0.00 | 0.00 | 0.00 | 33 | 995.4 |
| 20260504183804 | 23 | 49 | 0.0 | 0.0 | 0.00 | 0.00 | 0.00 | 32 | 995.4 |
| 20260504183456 | 23 | 351 | 0.0 | 0.0 | 0.00 | 0.00 | 0.00 | 33 | 995.3 |
| 20260504183301 | 23 | 291 | 0.0 | 0.0 | 0.00 | 0.00 | 0.00 | 35 | 995.4 |
| 20260504182952 | 23 | 25 | 0.0 | 0.0 | 0.00 | 0.00 | 0.00 | 36 | 995.5 |
| 20260504182759 | 23 | 240 | 0.0 | 0.0 | 0.00 | 0.00 | 0.00 | 35 | 995.4 |
| 20260504182453 | 23 | 234 | 0.0 | 0.0 | 0.00 | 0.00 | 0.00 | 33 | 995.5 |
| 20260504182255 | 23 | 161 | 0.0 | 0.0 | 0.00 | 0.00 | 0.00 | 34 | 995.4 |
| 20260504181952 | 23 | 168 | 0.0 | 0.0 | 0.00 | 0.00 | 0.00 | 34 | 995.5 |
| 20260504181753 | 23 | 42 | 0.0 | 0.0 | 0.00 | 0.00 | 0.00 | 35 | 995.4 |
| 20260504181452 | 23 | 31 | 0.0 | 0.0 | 0.00 | 0.00 | 0.00 | 34 | 995.6 |
| 20260504181250 | 23 | 288 | 0.0 | 0.0 | 0.00 | 0.00 | 0.00 | 33 | 995.4 |
| 20260504180952 | 23 | 118 | 0.0 | 0.0 | 0.00 | 0.00 | 0.00 | 34 | 995.4 |
| 20260504180749 | 24 | 212 | 0.0 | 0.0 | 0.00 | 0.00 | 0.00 | 33 | 995.9 |
| 20260504180452 | 24 | 137 | 0.0 | 0.0 | 0.00 | 0.00 | 0.00 | 36 | 995.6 |
| 20260504180247 | 24 | 55 | 0.0 | 0.0 | 0.00 | 0.00 | 0.00 | 33 | 995.9 |
| 20260504175953 | 23 | 5 | 0.0 | 0.0 | 0.00 | 0.00 | 0.00 | 37 | 995.7 |
| 20260504175745 | 23 | 311 | 0.0 | 0.0 | 0.00 | 0.00 | 0.00 | 38 | 995.9 |
| 20260504175452 | 23 | 258 | 0.0 | 0.0 | 0.00 | 0.00 | 0.00 | 36 | 995.7 |
| 20260504175241 | 23 | 281 | 0.0 | 0.0 | 0.00 | 0.00 | 0.00 | 35 | 995.9 |
| 20260504175233 | 23 | 280 | 0.0 | 0.0 | 0.00 | 0.00 | 0.00 | 35 | 995.7 |
| 20260504174739 | 23 | 294 | 0.0 | 0.0 | 0.00 | 0.00 | 0.00 | 35 | 995.9 |
| 20260504174449 | 23 | 84 | 0.0 | 0.0 | 0.00 | 0.00 | 0.00 | 35 | 995.7 |
| 20260504174237 | 23 | 261 | 0.0 | 0.0 | 0.00 | 0.00 | 0.00 | 38 | 995.9 |
| 20260504173946 | 23 | 5 | 0.0 | 0.0 | 0.00 | 0.00 | 0.00 | 37 | 995.8 |
| 20260504173733 | 23 | 348 | 0.0 | 0.0 | 0.00 | 0.00 | 0.00 | 40 | 995.9 |
| 20260504173446 | 23 | 226 | 0.0 | 0.0 | 0.00 | 0.00 | 0.00 | 35 | 995.9 |
| 20260504173230 | 23 | 319 | 0.0 | 0.0 | 0.00 | 0.00 | 0.00 | 36 | 996.2 |
| 20260504172946 | 23 | 315 | 0.0 | 0.0 | 0.00 | 0.00 | 0.00 | 36 | 996.0 |
| 20260504172727 | 23 | 355 | 0.0 | 0.0 | 0.00 | 0.00 | 0.00 | 38 | 996.2 |
| 20260504172443 | 23 | 22 | 0.0 | 0.0 | 0.00 | 0.00 | 0.00 | 38 | 996.0 |
| 20260504172224 | 23 | 280 | 0.0 | 0.0 | 0.00 | 0.00 | 0.00 | 38 | 996.2 |
| 20260504171938 | 22 | 355 | 0.0 | 0.0 | 0.00 | 0.00 | 0.00 | 42 | 995.9 |
| 20260504171720 | 22 | 238 | 0.0 | 0.0 | 0.00 | 0.00 | 0.00 | 37 | 996.2 |
| 20260504171436 | 22 | 251 | 0.0 | 0.0 | 0.00 | 0.00 | 0.00 | 35 | 996.2 |
| 20260504171217 | 22 | 280 | 0.0 | 0.0 | 0.00 | 0.00 | 0.00 | 38 | 996.2 |
| 20260504170944 | 22 | 319 | 0.0 | 0.0 | 0.00 | 0.00 | 0.00 | 36 | 996.2 |
| 20260504170714 | 22 | 170 | 0.0 | 0.0 | 0.00 | 0.00 | 0.00 | 37 | 996.2 |
| 20260504170449 | 22 | 303 | 0.0 | 0.0 | 0.00 | 0.00 | 0.00 | 36 | 996.2 |
| 20260504170211 | 22 | 346 | 0.0 | 0.0 | 0.00 | 0.00 | 0.00 | 36 | 996.2 |
| 20260504160437 | 20 | 167 | 0.0 | 0.0 | 0.00 | 0.00 | 0.00 | 43 | 996.7 |
| 20260504160214 | 20 | 166 | 0.0 | 0.0 | 0.00 | 0.00 | 0.00 | 43 | 996.7 |
| 20260504160129 | 20 | 164 | 0.0 | 0.0 | 0.00 | 0.00 | 0.00 | 43 | 996.9 |
| 20260504151057 | 18 | 165 | 0.0 | 0.0 | 0.00 | 0.00 | 0.00 | 46 | 997.2 |
| 20260504150936 | 18 | 90 | 0.0 | 0.0 | 0.00 | 0.00 | 0.00 | 44 | 997.2 |
| 20260504150554 | 18 | 146 | 0.0 | 0.0 | 0.00 | 0.00 | 0.00 | 42 | 997.2 |
| 20260504150431 | 18 | 74 | 0.0 | 0.0 | 0.00 | 0.00 | 0.00 | 42 | 997.2 |
| 20260504141020 | 16 | 123 | 0.0 | 0.0 | 0.00 | 0.00 | 0.00 | 48 | 997.9 |
| 20260504140910 | 15 | 199 | 0.0 | 0.0 | 0.00 | 0.00 | 0.00 | 48 | 997.8 |
| 20260504140517 | 15 | 18 | 0.0 | 0.0 | 0.00 | 0.00 | 0.00 | 48 | 997.9 |
| 20260504140408 | 15 | 98 | 0.0 | 0.0 | 0.00 | 0.00 | 0.00 | 48 | 997.8 |
| 20260504130441 | 15 | 96 | 0.0 | 0.0 | 0.00 | 0.00 | 0.00 | 48 | 998.6 |
| 20260504130403 | 14 | 157 | 0.0 | 0.0 | 0.00 | 0.00 | 0.00 | 48 | 998.5 |
| 20260504110351 | 6 | 157 | 0.0 | 0.0 | 0.00 | 0.00 | 0.00 | 75 | 998.7 |
| 20260504110328 | 6 | 157 | 0.0 | 0.0 | 0.00 | 0.00 | 0.00 | 76 | 998.6 |
| 20260504100331 | 5 | 196 | 0.0 | 0.0 | 0.00 | 0.00 | 0.00 | 82 | 998.7 |
| 20260504100246 | 5 | 196 | 0.0 | 0.0 | 0.00 | 0.00 | 0.00 | 82 | 998.9 |
| 20260504100114 | 5 | 196 | 0.0 | 0.0 | 0.00 | 0.00 | 0.00 | 82 | 998.7 |
| 20260504081820 | 6 | 196 | 0.0 | 0.0 | 0.00 | 0.00 | 0.00 | 74 | 999.1 |
| 20260504081639 | 6 | 196 | 0.0 | 0.0 | 0.00 | 0.00 | 0.00 | 73 | 999.2 |
| 20260504081548 | 6 | 196 | 0.0 | 0.0 | 0.00 | 0.00 | 0.00 | 73 | 999.1 |
| 20260504081135 | 6 | 196 | 0.0 | 0.0 | 0.00 | 0.00 | 0.00 | 73 | 999.2 |
| 20260504080816 | 6 | 196 | 0.0 | 0.0 | 0.00 | 0.00 | 0.00 | 73 | 999.0 |
| 20260504080632 | 6 | 196 | 0.0 | 0.0 | 0.00 | 0.00 | 0.00 | 73 | 999.2 |
| 20260504080315 | 6 | 196 | 0.0 | 0.0 | 0.00 | 0.00 | 0.00 | 73 | 999.0 |
| 20260504080128 | 6 | 196 | 0.0 | 0.0 | 0.00 | 0.00 | 0.00 | 73 | 999.2 |
| 20260504070311 | 6 | 140 | 0.0 | 0.0 | 0.00 | 0.00 | 0.00 | 75 | 998.9 |
| 20260504050752 | 6 | 217 | 0.0 | 0.0 | 0.00 | 0.00 | 0.00 | 74 | 999.1 |
| 20260504050445 | 6 | 217 | 0.0 | 0.0 | 0.00 | 0.00 | 0.00 | 74 | 999.2 |
| 20260504050250 | 6 | 217 | 0.0 | 0.0 | 0.00 | 0.00 | 0.00 | 74 | 999.2 |
| 20260504045942 | 6 | 217 | 0.0 | 0.0 | 0.00 | 0.00 | 0.00 | 73 | 999.2 |
| 20260504045746 | 6 | 217 | 0.0 | 0.0 | 0.00 | 0.00 | 0.00 | 74 | 999.2 |
| 20260504045437 | 7 | 217 | 0.0 | 0.0 | 0.00 | 0.00 | 0.00 | 73 | 999.2 |
| 20260504045246 | 7 | 217 | 0.0 | 0.0 | 0.00 | 0.00 | 0.00 | 73 | 999.3 |
| 20260504045017 | 7 | 217 | 0.0 | 0.0 | 0.00 | 0.00 | 0.00 | 73 | 999.3 |
| 20260504044934 | 7 | 217 | 0.0 | 0.0 | 0.00 | 0.00 | 0.00 | 73 | 999.7 |
| 20260504044432 | 7 | 217 | 0.0 | 0.0 | 0.00 | 0.00 | 0.00 | 73 | 999.2 |
| 20260504044242 | 7 | 217 | 0.0 | 0.0 | 0.00 | 0.00 | 0.00 | 72 | 999.3 |
| 20260504043929 | 7 | 217 | 0.0 | 0.0 | 0.00 | 0.00 | 0.00 | 72 | 999.2 |
| 20260504043740 | 7 | 217 | 0.0 | 0.0 | 0.00 | 0.00 | 0.00 | 72 | 999.3 |
| 20260504043426 | 7 | 217 | 0.0 | 0.0 | 0.00 | 0.00 | 0.00 | 72 | 999.2 |
| 20260504043239 | 7 | 217 | 0.0 | 0.0 | 0.00 | 0.00 | 0.00 | 72 | 999.2 |
| 20260504042923 | 8 | 217 | 0.0 | 0.0 | 0.00 | 0.00 | 0.00 | 71 | 999.2 |
| 20260504042735 | 8 | 217 | 0.0 | 0.0 | 0.00 | 0.00 | 0.00 | 71 | 999.3 |
| 20260504042420 | 8 | 217 | 0.0 | 0.0 | 0.00 | 0.00 | 0.00 | 71 | 999.2 |
| 20260504042234 | 8 | 217 | 0.0 | 0.0 | 0.00 | 0.00 | 0.00 | 71 | 999.2 |
| 20260504041916 | 8 | 217 | 0.0 | 0.0 | 0.00 | 0.00 | 0.00 | 71 | 999.2 |
| 20260504041733 | 8 | 217 | 0.0 | 0.0 | 0.00 | 0.00 | 0.00 | 71 | 999.3 |
| 20260504041412 | 8 | 217 | 0.0 | 0.0 | 0.00 | 0.00 | 0.00 | 71 | 999.2 |
| 20260504041225 | 8 | 217 | 0.0 | 0.0 | 0.00 | 0.00 | 0.00 | 71 | 999.3 |
| 20260504040908 | 8 | 217 | 0.0 | 0.0 | 0.00 | 0.00 | 0.00 | 70 | 999.2 |
| 20260504040718 | 8 | 217 | 0.0 | 0.0 | 0.00 | 0.00 | 0.00 | 70 | 999.3 |
| 20260504040406 | 8 | 217 | 0.0 | 0.0 | 0.00 | 0.00 | 0.00 | 70 | 999.2 |
| 20260504040212 | 8 | 217 | 0.0 | 0.0 | 0.00 | 0.00 | 0.00 | 70 | 999.3 |
| 20260504035902 | 8 | 217 | 0.0 | 0.0 | 0.00 | 0.00 | 0.00 | 70 | 999.2 |
| 20260504035713 | 8 | 217 | 0.0 | 0.0 | 0.00 | 0.00 | 0.00 | 70 | 999.3 |
| 20260504035400 | 9 | 217 | 0.0 | 0.0 | 0.00 | 0.00 | 0.00 | 70 | 999.2 |
| 20260504035210 | 9 | 217 | 0.0 | 0.0 | 0.00 | 0.00 | 0.00 | 69 | 999.3 |
| 20260504034856 | 9 | 217 | 0.0 | 0.0 | 0.00 | 0.00 | 0.00 | 69 | 999.2 |
| 20260504034709 | 9 | 218 | 0.0 | 0.0 | 0.00 | 0.00 | 0.00 | 69 | 999.3 |
| 20260504034353 | 9 | 218 | 0.0 | 0.0 | 0.00 | 0.00 | 0.00 | 68 | 999.2 |
| 20260504034212 | 9 | 218 | 0.0 | 0.0 | 0.00 | 0.00 | 0.00 | 68 | 999.3 |
| 20260504033850 | 9 | 218 | 0.0 | 0.0 | 0.00 | 0.00 | 0.00 | 68 | 999.2 |
| 20260504033708 | 9 | 218 | 0.0 | 0.0 | 0.00 | 0.00 | 0.00 | 68 | 999.3 |
| 20260504033443 | 10 | 218 | 0.0 | 0.0 | 0.00 | 0.00 | 0.00 | 68 | 999.4 |
| 20260504033349 | 10 | 218 | 0.0 | 0.0 | 0.00 | 0.00 | 0.00 | 68 | 999.7 |
| 20260504032944 | 10 | 218 | 0.0 | 0.0 | 0.00 | 0.00 | 0.00 | 67 | 999.4 |
| 20260504032845 | 10 | 218 | 0.0 | 0.0 | 0.00 | 0.00 | 0.00 | 67 | 999.7 |
| 20260504032342 | 10 | 218 | 0.0 | 0.0 | 0.00 | 0.00 | 0.00 | 67 | 999.7 |
| 20260504032210 | 10 | 218 | 0.0 | 0.0 | 0.00 | 0.00 | 0.00 | 67 | 999.5 |
| 20260504031838 | 10 | 218 | 0.0 | 0.0 | 0.00 | 0.00 | 0.00 | 67 | 999.7 |
| 20260504031705 | 10 | 218 | 0.0 | 0.0 | 0.00 | 0.00 | 0.00 | 67 | 999.5 |
| 20260504031336 | 10 | 218 | 0.0 | 0.0 | 0.00 | 0.00 | 0.00 | 66 | 999.7 |
| 20260504031206 | 10 | 218 | 0.0 | 0.0 | 0.00 | 0.00 | 0.00 | 66 | 999.5 |
| 20260504030933 | 10 | 218 | 0.0 | 0.0 | 0.00 | 0.00 | 0.00 | 65 | 999.5 |
| 20260504030832 | 10 | 218 | 0.0 | 0.0 | 0.00 | 0.00 | 0.00 | 65 | 999.7 |
| 20260504030330 | 10 | 218 | 0.0 | 0.0 | 0.00 | 0.00 | 0.00 | 64 | 999.7 |
| 20260504030205 | 10 | 218 | 0.0 | 0.0 | 0.00 | 0.00 | 0.00 | 65 | 999.6 |
| 20260504025826 | 10 | 218 | 0.0 | 0.0 | 0.00 | 0.00 | 0.00 | 64 | 999.7 |
| 20260504025706 | 10 | 218 | 0.0 | 0.0 | 0.00 | 0.00 | 0.00 | 64 | 999.6 |
| 20260504025323 | 10 | 218 | 0.0 | 0.0 | 0.00 | 0.00 | 0.00 | 63 | 999.7 |
| 20260504025205 | 10 | 218 | 0.0 | 0.0 | 0.00 | 0.00 | 0.00 | 63 | 999.6 |
| 20260504024819 | 10 | 218 | 0.0 | 0.0 | 0.00 | 0.00 | 0.00 | 61 | 999.7 |
| 20260504024706 | 10 | 218 | 0.0 | 0.0 | 0.00 | 0.00 | 0.00 | 61 | 999.6 |
| 20260504024316 | 11 | 218 | 0.0 | 0.0 | 0.00 | 0.00 | 0.00 | 61 | 1000.0 |
| 20260504024205 | 11 | 218 | 0.0 | 0.0 | 0.00 | 0.00 | 0.00 | 61 | 999.7 |
| 20260504023812 | 11 | 218 | 0.0 | 0.0 | 0.00 | 0.00 | 0.00 | 60 | 1000.0 |
| 20260504023703 | 11 | 218 | 0.0 | 0.0 | 0.00 | 0.00 | 0.00 | 60 | 999.6 |
| 20260504023437 | 11 | 218 | 0.0 | 0.0 | 0.00 | 0.00 | 0.00 | 59 | 999.6 |
| 20260504023309 | 11 | 218 | 0.0 | 0.0 | 0.00 | 0.00 | 0.00 | 59 | 999.7 |
| 20260504022805 | 11 | 218 | 0.0 | 0.0 | 0.00 | 0.00 | 0.00 | 60 | 999.7 |
| 20260504022658 | 11 | 218 | 0.0 | 0.0 | 0.00 | 0.00 | 0.00 | 60 | 999.6 |
| 20260504022304 | 11 | 218 | 0.0 | 0.0 | 0.00 | 0.00 | 0.00 | 59 | 999.7 |
| 20260504022151 | 11 | 218 | 0.0 | 0.0 | 0.00 | 0.00 | 0.00 | 59 | 999.6 |
| 20260504021925 | 11 | 218 | 0.0 | 0.0 | 0.00 | 0.00 | 0.00 | 58 | 999.6 |
| 20260504021758 | 11 | 218 | 0.0 | 0.0 | 0.00 | 0.00 | 0.00 | 58 | 999.7 |
| 20260504021256 | 11 | 218 | 0.0 | 0.0 | 0.00 | 0.00 | 0.00 | 57 | 1000.0 |
| 20260504021150 | 11 | 218 | 0.0 | 0.0 | 0.00 | 0.00 | 0.00 | 57 | 999.7 |
| 20260504020753 | 11 | 218 | 0.0 | 0.0 | 0.00 | 0.00 | 0.00 | 55 | 1000.0 |
| 20260504020650 | 11 | 218 | 0.0 | 0.0 | 0.00 | 0.00 | 0.00 | 55 | 999.7 |
| 20260504020249 | 12 | 218 | 0.0 | 0.0 | 0.00 | 0.00 | 0.00 | 55 | 1000.0 |
| 20260504020150 | 12 | 218 | 0.0 | 0.0 | 0.00 | 0.00 | 0.00 | 55 | 999.7 |
| 20260504015913 | 12 | 218 | 0.0 | 0.0 | 0.00 | 0.00 | 0.00 | 53 | 999.7 |
| 20260504015745 | 12 | 218 | 0.0 | 0.0 | 0.00 | 0.00 | 0.00 | 53 | 1000.0 |
| 20260504015242 | 12 | 218 | 0.0 | 0.0 | 0.00 | 0.00 | 0.00 | 50 | 1000.0 |
| 20260504015143 | 12 | 218 | 0.0 | 0.0 | 0.00 | 0.00 | 0.00 | 50 | 999.7 |
| 20260504014737 | 12 | 175 | 0.0 | 0.0 | 0.00 | 0.00 | 0.00 | 51 | 1000.0 |
| 20260504014643 | 12 | 175 | 0.0 | 0.0 | 0.00 | 0.00 | 0.00 | 51 | 999.7 |
| 20260504014234 | 12 | 175 | 0.0 | 0.0 | 0.00 | 0.00 | 0.00 | 47 | 1000.0 |
| 20260504014142 | 12 | 175 | 0.0 | 0.0 | 0.00 | 0.00 | 0.00 | 47 | 999.7 |
| 20260504013732 | 12 | 247 | 0.0 | 0.0 | 0.00 | 0.00 | 0.00 | 48 | 1000.0 |
| 20260504013642 | 12 | 247 | 0.0 | 0.0 | 0.00 | 0.00 | 0.00 | 48 | 999.8 |
| 20260504013230 | 12 | 244 | 0.0 | 0.0 | 0.00 | 0.00 | 0.00 | 49 | 1000.0 |
| 20260504013139 | 12 | 244 | 0.0 | 0.0 | 0.00 | 0.00 | 0.00 | 47 | 999.9 |
| 20260504012726 | 12 | 244 | 0.0 | 0.0 | 0.00 | 0.00 | 0.00 | 48 | 1000.0 |
| 20260504012637 | 12 | 244 | 0.0 | 0.0 | 0.00 | 0.00 | 0.00 | 49 | 999.9 |
| 20260504012224 | 12 | 191 | 0.0 | 0.0 | 0.00 | 0.00 | 0.00 | 49 | 1000.0 |
| 20260504012145 | 12 | 191 | 0.0 | 0.0 | 0.00 | 0.00 | 0.00 | 49 | 999.9 |
| 20260504011721 | 12 | 292 | 0.0 | 0.0 | 0.00 | 0.00 | 0.00 | 48 | 1000.4 |
| 20260504011638 | 12 | 292 | 0.0 | 0.0 | 0.00 | 0.00 | 0.00 | 48 | 1000.0 |
| 20260504011217 | 12 | 100 | 0.0 | 0.0 | 0.00 | 0.00 | 0.00 | 47 | 1000.0 |
| 20260504011140 | 12 | 102 | 0.0 | 0.0 | 0.00 | 0.00 | 0.00 | 47 | 999.8 |
| 20260504010911 | 12 | 279 | 0.0 | 0.0 | 0.00 | 0.00 | 0.00 | 47 | 999.8 |
| 20260504010713 | 12 | 279 | 0.0 | 0.0 | 0.00 | 0.00 | 0.00 | 47 | 1000.0 |
| 20260504010210 | 12 | 224 | 0.0 | 0.0 | 0.00 | 0.00 | 0.00 | 50 | 999.7 |
| 20260504010135 | 12 | 224 | 0.0 | 0.0 | 0.00 | 0.00 | 0.00 | 50 | 999.6 |
| 20260504005706 | 12 | 258 | 0.0 | 0.0 | 0.00 | 0.00 | 0.00 | 47 | 999.7 |
| 20260504005633 | 12 | 258 | 0.0 | 0.0 | 0.00 | 0.00 | 0.00 | 47 | 999.6 |
| 20260504005203 | 12 | 260 | 0.0 | 0.0 | 0.00 | 0.00 | 0.00 | 48 | 999.7 |
| 20260504005131 | 12 | 260 | 0.0 | 0.0 | 0.00 | 0.00 | 0.00 | 48 | 999.4 |
| 20260504004701 | 12 | 264 | 0.0 | 0.0 | 0.00 | 0.00 | 0.00 | 47 | 999.7 |
| 20260504004631 | 12 | 260 | 0.0 | 0.0 | 0.00 | 0.00 | 0.00 | 47 | 999.5 |
| 20260504004157 | 12 | 315 | 0.0 | 0.0 | 0.00 | 0.00 | 0.00 | 48 | 999.7 |
| 20260504004131 | 12 | 315 | 0.0 | 0.0 | 0.00 | 0.00 | 0.00 | 48 | 999.5 |
| 20260504003654 | 12 | 286 | 0.0 | 0.0 | 0.00 | 0.00 | 0.00 | 48 | 999.7 |
| 20260504003629 | 12 | 296 | 0.0 | 0.0 | 0.00 | 0.00 | 0.00 | 46 | 999.5 |
| 20260504003151 | 12 | 246 | 0.0 | 0.0 | 0.00 | 0.00 | 0.00 | 46 | 999.7 |
| 20260504003122 | 12 | 240 | 0.0 | 0.0 | 0.00 | 0.00 | 0.00 | 45 | 999.4 |
| 20260504002647 | 12 | 83 | 0.0 | 0.0 | 0.00 | 0.00 | 0.00 | 49 | 999.7 |
| 20260504002619 | 12 | 83 | 0.0 | 0.0 | 0.00 | 0.00 | 0.00 | 51 | 999.4 |
| 20260504002405 | 12 | 82 | 0.0 | 0.0 | 0.00 | 0.00 | 0.00 | 48 | 999.3 |
| 20260504002145 | 12 | 82 | 0.0 | 0.0 | 0.00 | 0.00 | 0.00 | 49 | 999.2 |
| 20260504001643 | 12 | 319 | 0.0 | 0.0 | 0.00 | 0.00 | 0.00 | 45 | 999.7 |
| 20260504001618 | 12 | 53 | 0.0 | 0.0 | 0.00 | 0.00 | 0.00 | 45 | 999.4 |
| 20260504001138 | 12 | 332 | 0.0 | 0.0 | 0.00 | 0.00 | 0.00 | 47 | 999.2 |
| 20260504001116 | 12 | 141 | 0.0 | 0.0 | 0.00 | 0.00 | 0.00 | 47 | 999.3 |
| 20260504000636 | 12 | 148 | 0.0 | 0.0 | 0.00 | 0.00 | 0.00 | 48 | 999.2 |
| 20260504000617 | 12 | 50 | 0.0 | 0.0 | 0.00 | 0.00 | 0.00 | 48 | 999.3 |
| 20260504000133 | 12 | 278 | 0.0 | 0.0 | 0.00 | 0.00 | 0.00 | 47 | 999.2 |
| 20260504000117 | 12 | 278 | 0.0 | 0.0 | 0.00 | 0.00 | 0.00 | 47 | 999.3 |
| 20260503235631 | 12 | 305 | 0.0 | 0.0 | 0.00 | 0.00 | 0.00 | 46 | 999.2 |
| 20260503235617 | 12 | 305 | 0.0 | 0.0 | 0.00 | 0.00 | 0.00 | 46 | 999.3 |
| 20260503235128 | 13 | 174 | 0.0 | 0.0 | 0.00 | 0.00 | 0.00 | 48 | 999.2 |
| 20260503235113 | 13 | 303 | 0.0 | 0.0 | 0.00 | 0.00 | 0.00 | 48 | 999.2 |
| 20260503234626 | 13 | 36 | 0.0 | 0.0 | 0.00 | 0.00 | 0.00 | 47 | 999.2 |
| 20260503234612 | 13 | 36 | 0.0 | 0.0 | 0.00 | 0.00 | 0.00 | 47 | 999.2 |
| 20260503234124 | 13 | 273 | 0.0 | 0.0 | 0.00 | 0.00 | 0.00 | 46 | 999.2 |
| 20260503234112 | 13 | 315 | 0.0 | 0.0 | 0.00 | 0.00 | 0.00 | 45 | 999.2 |
| 20260503233844 | 13 | 297 | 0.0 | 0.0 | 0.00 | 0.00 | 0.00 | 46 | 999.2 |
| 20260503233621 | 13 | 306 | 0.0 | 0.0 | 0.00 | 0.00 | 0.00 | 45 | 999.2 |
| 20260503233116 | 13 | 53 | 0.0 | 0.0 | 0.00 | 0.00 | 0.00 | 45 | 999.2 |
| 20260503233109 | 13 | 57 | 0.0 | 0.0 | 0.00 | 0.00 | 0.00 | 45 | 999.0 |
| 20260503232613 | 13 | 98 | 0.0 | 0.0 | 0.00 | 0.00 | 0.00 | 44 | 999.2 |
| 20260503232606 | 13 | 267 | 0.0 | 0.0 | 0.00 | 0.00 | 0.00 | 44 | 999.0 |
| 20260503232350 | 13 | 0 | 0.0 | 0.0 | 0.00 | 0.00 | 0.00 | 47 | 999.0 |
| 20260503232110 | 13 | 311 | 0.0 | 0.0 | 0.00 | 0.00 | 0.00 | 48 | 999.2 |
| 20260503231610 | 13 | 340 | 0.0 | 0.0 | 0.00 | 0.00 | 0.00 | 49 | 998.8 |
| 20260503231105 | 13 | 199 | 0.0 | 0.0 | 0.00 | 0.00 | 0.00 | 49 | 998.9 |
| 20260503230620 | 13 | 199 | 0.0 | 0.0 | 0.00 | 0.00 | 0.00 | 47 | 998.7 |
| 20260503230602 | 13 | 199 | 0.0 | 0.0 | 0.00 | 0.00 | 0.00 | 47 | 998.9 |
| 20260503230105 | 14 | 200 | 0.0 | 0.0 | 0.00 | 0.00 | 0.00 | 44 | 998.6 |
| 20260503230059 | 14 | 200 | 0.0 | 0.0 | 0.00 | 0.00 | 0.00 | 43 | 998.6 |
| 20260503225611 | 14 | 355 | 0.0 | 0.0 | 0.00 | 0.00 | 0.00 | 45 | 998.7 |
| 20260503225556 | 14 | 355 | 0.0 | 0.0 | 0.00 | 0.00 | 0.00 | 45 | 998.6 |
| 20260503225106 | 14 | 215 | 0.0 | 0.0 | 0.00 | 0.00 | 0.00 | 41 | 998.6 |
| 20260503225051 | 14 | 215 | 0.0 | 0.0 | 0.00 | 0.00 | 0.00 | 41 | 998.6 |
| 20260503224601 | 14 | 215 | 0.0 | 0.0 | 0.00 | 0.00 | 0.00 | 41 | 998.6 |
| 20260503224549 | 14 | 313 | 0.0 | 0.0 | 0.00 | 0.00 | 0.00 | 40 | 998.6 |
| 20260503224059 | 14 | 286 | 0.0 | 0.0 | 0.00 | 0.00 | 0.00 | 42 | 998.7 |
| 20260503224046 | 14 | 288 | 0.0 | 0.0 | 0.00 | 0.00 | 0.00 | 44 | 998.9 |
| 20260503223557 | 14 | 304 | 0.0 | 0.0 | 0.00 | 0.00 | 0.00 | 42 | 998.7 |
| 20260503223544 | 15 | 304 | 0.0 | 0.0 | 0.00 | 0.00 | 0.00 | 43 | 998.9 |
| 20260503223057 | 14 | 317 | 0.0 | 0.0 | 0.00 | 0.00 | 0.00 | 40 | 998.7 |
| 20260503223039 | 15 | 317 | 0.0 | 0.0 | 0.00 | 0.00 | 0.00 | 40 | 998.9 |
| 20260503222555 | 14 | 323 | 0.0 | 0.0 | 0.00 | 0.00 | 0.00 | 43 | 998.7 |
| 20260503222538 | 14 | 323 | 0.0 | 0.0 | 0.00 | 0.00 | 0.00 | 41 | 998.9 |
| 20260503222055 | 14 | 346 | 0.0 | 0.0 | 0.00 | 0.00 | 0.00 | 46 | 998.7 |
| 20260503222035 | 14 | 17 | 0.0 | 0.0 | 0.00 | 0.00 | 0.00 | 46 | 998.9 |
| 20260503221559 | 14 | 319 | 0.0 | 0.0 | 0.00 | 0.00 | 0.00 | 45 | 998.7 |
| 20260503221533 | 14 | 320 | 0.0 | 0.0 | 0.00 | 0.00 | 0.00 | 45 | 998.9 |
| 20260503221336 | 14 | 318 | 0.0 | 0.0 | 0.00 | 0.00 | 0.00 | 42 | 998.7 |
| 20260503221031 | 14 | 258 | 0.0 | 0.0 | 0.00 | 0.00 | 0.00 | 42 | 998.9 |
| 20260503220555 | 14 | 291 | 0.0 | 0.0 | 0.00 | 0.00 | 0.00 | 42 | 998.8 |
| 20260503220526 | 14 | 20 | 0.0 | 0.0 | 0.00 | 0.00 | 0.00 | 41 | 998.9 |
| 20260503220340 | 14 | 24 | 0.0 | 0.0 | 0.00 | 0.00 | 0.00 | 43 | 998.8 |
| 20260503220024 | 14 | 24 | 0.0 | 0.0 | 0.00 | 0.00 | 0.00 | 42 | 998.9 |
| 20260503215559 | 14 | 286 | 0.0 | 0.0 | 0.00 | 0.00 | 0.00 | 43 | 998.8 |
| 20260503215521 | 14 | 286 | 0.0 | 0.0 | 0.00 | 0.00 | 0.00 | 41 | 998.9 |
| 20260503215054 | 14 | 296 | 0.0 | 0.0 | 0.00 | 0.00 | 0.00 | 41 | 998.8 |